TimeCST,TemperatureF,Dew PointF,Humidity,Sea Level PressureIn,VisibilityMPH,Wind Direction,Wind SpeedMPH,Gust SpeedMPH,PrecipitationIn,Events,Conditions,WindDirDegrees,DateUTC
12:15 AM,27.3,24.8,90,30.01,10.0,ESE,3.5,-,N/A,,Clear,120,2013-02-17 06:15:00
12:35 AM,27.1,24.8,91,30.01,10.0,Calm,Calm,-,N/A,,Clear,0,2013-02-17 06:35:00
12:55 AM,25.9,24.4,94,30.01,10.0,Calm,Calm,-,N/A,,Clear,0,2013-02-17 06:55:00
1:15 AM,25.0,23.7,95,30.01,10.0,Calm,Calm,-,N/A,,Clear,0,2013-02-17 07:15:00
1:35 AM,26.8,24.6,92,30.01,10.0,Calm,Calm,-,N/A,,Clear,0,2013-02-17 07:35:00
1:55 AM,26.4,24.3,92,30.01,10.0,SE,3.5,-,N/A,,Clear,130,2013-02-17 07:55:00
2:15 AM,26.1,23.9,92,30.01,10.0,SE,3.5,-,N/A,,Clear,130,2013-02-17 08:15:00
2:35 AM,25.7,23.9,93,30.00,10.0,Calm,Calm,-,N/A,,Clear,0,2013-02-17 08:35:00
2:55 AM,25.7,23.9,93,29.99,10.0,Calm,Calm,-,N/A,,Clear,0,2013-02-17 08:55:00
3:15 AM,25.0,22.8,91,29.99,10.0,SE,3.5,-,N/A,,Clear,130,2013-02-17 09:15:00
3:35 AM,25.5,23.4,92,29.99,10.0,Calm,Calm,-,N/A,,Clear,0,2013-02-17 09:35:00
3:55 AM,25.7,23.2,90,29.98,10.0,SE,4.6,-,N/A,,Clear,130,2013-02-17 09:55:00
4:15 AM,25.0,23.0,92,29.98,10.0,SE,3.5,-,N/A,,Clear,130,2013-02-17 10:15:00
4:35 AM,24.6,22.8,93,29.97,10.0,SE,4.6,-,N/A,,Clear,140,2013-02-17 10:35:00
4:55 AM,24.6,23.0,94,29.96,10.0,SE,4.6,-,N/A,,Clear,140,2013-02-17 10:55:00
5:15 AM,23.4,21.7,94,29.96,10.0,SE,3.5,-,N/A,,Clear,130,2013-02-17 11:15:00
5:35 AM,23.9,22.1,93,29.96,10.0,SE,4.6,-,N/A,,Clear,140,2013-02-17 11:35:00
5:55 AM,23.7,21.9,93,29.96,10.0,SE,4.6,-,N/A,,Clear,140,2013-02-17 11:55:00
6:15 AM,23.5,21.9,94,29.95,10.0,ESE,4.6,-,N/A,,Clear,120,2013-02-17 12:15:00
6:35 AM,23.2,21.7,94,29.95,10.0,SE,4.6,-,N/A,,Clear,130,2013-02-17 12:35:00
6:55 AM,23.0,21.2,93,29.94,10.0,SE,5.8,-,N/A,,Clear,130,2013-02-17 12:55:00
7:15 AM,23.4,21.6,93,29.93,10.0,SE,5.8,-,N/A,,Clear,140,2013-02-17 13:15:00
7:35 AM,24.1,22.5,94,29.94,10.0,SE,5.8,-,N/A,,Clear,140,2013-02-17 13:35:00
7:55 AM,24.6,23.0,94,29.94,10.0,SE,5.8,-,N/A,,Clear,140,2013-02-17 13:55:00
8:15 AM,26.8,24.6,92,29.94,10.0,SE,5.8,-,N/A,,Clear,130,2013-02-17 14:15:00
8:35 AM,28.8,25.0,86,29.93,10.0,SE,11.5,-,N/A,,Clear,140,2013-02-17 14:35:00
8:55 AM,29.7,25.3,84,29.92,10.0,SE,9.2,-,N/A,,Clear,130,2013-02-17 14:55:00
9:15 AM,31.1,26.1,82,29.92,10.0,SSE,9.2,-,N/A,,Clear,150,2013-02-17 15:15:00
9:35 AM,32.4,26.4,79,29.90,10.0,SE,10.4,-,N/A,,Clear,140,2013-02-17 15:35:00
9:55 AM,33.8,26.6,75,29.88,10.0,SE,13.8,-,N/A,,Clear,130,2013-02-17 15:55:00
10:15 AM,34.9,27.3,74,29.88,10.0,SE,12.7,-,N/A,,Clear,130,2013-02-17 16:15:00
10:35 AM,36.0,28.0,73,29.87,10.0,SSE,12.7,-,N/A,,Clear,150,2013-02-17 16:35:00
10:55 AM,37.8,28.6,69,29.87,10.0,SSE,11.5,-,N/A,,Clear,160,2013-02-17 16:55:00
11:15 AM,40.1,29.5,66,29.86,10.0,SSE,11.5,-,N/A,,Clear,150,2013-02-17 17:15:00
11:35 AM,41.2,29.8,64,29.85,10.0,SE,13.8,-,N/A,,Clear,140,2013-02-17 17:35:00
11:55 AM,42.4,30.4,62,29.84,10.0,SE,15.0,18.4,N/A,,Clear,140,2013-02-17 17:55:00
12:15 PM,43.7,30.6,60,29.82,10.0,SSE,16.1,20.7,N/A,,Clear,150,2013-02-17 18:15:00
12:35 PM,45.5,31.3,58,29.80,10.0,SSE,15.0,21.9,N/A,,Clear,150,2013-02-17 18:35:00
12:55 PM,45.7,30.7,56,29.78,10.0,SSE,18.4,24.2,N/A,,Clear,150,2013-02-17 18:55:00
1:15 PM,47.1,30.6,53,29.77,10.0,SE,15.0,-,N/A,,Clear,140,2013-02-17 19:15:00
1:35 PM,47.8,31.1,52,29.75,10.0,SSE,17.3,20.7,N/A,,Clear,150,2013-02-17 19:35:00
1:55 PM,49.3,31.6,51,29.74,10.0,SE,15.0,24.2,N/A,,Clear,140,2013-02-17 19:55:00
2:15 PM,50.5,32.0,49,29.72,10.0,SSE,17.3,21.9,N/A,,Clear,160,2013-02-17 20:15:00
2:35 PM,50.9,32.5,49,29.71,10.0,SE,16.1,-,N/A,,Clear,140,2013-02-17 20:35:00
2:55 PM,51.4,32.4,48,29.70,10.0,SSE,15.0,24.2,N/A,,Clear,150,2013-02-17 20:55:00
3:15 PM,52.5,32.9,47,29.69,10.0,SSE,13.8,-,N/A,,Clear,160,2013-02-17 21:15:00
3:35 PM,53.6,33.1,46,29.68,10.0,SSE,12.7,-,N/A,,Clear,150,2013-02-17 21:35:00
3:55 PM,52.7,33.1,47,29.67,10.0,SSE,16.1,-,N/A,,Clear,150,2013-02-17 21:55:00
4:15 PM,54.3,33.8,46,29.66,10.0,SSE,12.7,18.4,N/A,,Clear,150,2013-02-17 22:15:00
4:35 PM,54.7,34.3,46,29.65,10.0,SSE,11.5,-,N/A,,Clear,150,2013-02-17 22:35:00
4:55 PM,54.9,34.0,45,29.64,10.0,SE,16.1,21.9,N/A,,Clear,140,2013-02-17 22:55:00
5:15 PM,53.6,33.6,47,29.64,10.0,SSE,12.7,18.4,N/A,,Clear,150,2013-02-17 23:15:00
5:35 PM,52.0,33.4,49,29.64,10.0,SE,10.4,-,N/A,,Clear,140,2013-02-17 23:35:00
5:55 PM,49.5,33.3,54,29.64,10.0,SE,6.9,-,N/A,,Clear,130,2013-02-17 23:55:00
6:15 PM,47.1,32.9,58,29.64,10.0,SSE,9.2,-,N/A,,Clear,150,2013-02-18 00:15:00
6:55 PM,45.5,33.1,62,29.64,10.0,SE,6.9,-,N/A,,Clear,130,2013-02-18 00:55:00
7:15 PM,46.0,33.8,62,29.64,10.0,SE,9.2,-,N/A,,Clear,140,2013-02-18 01:15:00
7:35 PM,45.5,33.3,62,29.62,10.0,SE,8.1,-,N/A,,Clear,140,2013-02-18 01:35:00
7:55 PM,46.4,33.4,61,29.62,10.0,SE,8.1,-,N/A,,Clear,140,2013-02-18 01:55:00
8:15 PM,46.6,33.4,60,29.62,10.0,SE,8.1,-,N/A,,Clear,130,2013-02-18 02:15:00
8:35 PM,46.9,33.4,59,29.61,10.0,SE,9.2,-,N/A,,Clear,130,2013-02-18 02:35:00
8:55 PM,47.3,33.3,58,29.61,10.0,SE,8.1,-,N/A,,Clear,130,2013-02-18 02:55:00
9:15 PM,46.9,32.9,58,29.60,10.0,SE,8.1,-,N/A,,Clear,130,2013-02-18 03:15:00
9:35 PM,46.2,32.7,59,29.60,10.0,SE,6.9,-,N/A,,Clear,140,2013-02-18 03:35:00
9:55 PM,46.4,32.9,59,29.60,10.0,SE,8.1,-,N/A,,Clear,130,2013-02-18 03:55:00
10:15 PM,45.1,32.9,62,29.59,10.0,SE,10.4,-,N/A,,Clear,130,2013-02-18 04:15:00
10:35 PM,44.4,32.7,64,29.58,10.0,SE,8.1,-,N/A,,Clear,130,2013-02-18 04:35:00
10:55 PM,44.8,32.9,63,29.57,10.0,ESE,6.9,-,N/A,,Clear,120,2013-02-18 04:55:00
11:15 PM,43.0,32.2,66,29.57,10.0,SE,5.8,-,N/A,,Clear,130,2013-02-18 05:15:00
11:35 PM,43.2,32.5,66,29.56,10.0,SE,5.8,-,N/A,,Clear,130,2013-02-18 05:35:00
11:55 PM,42.8,32.7,68,29.57,10.0,SE,4.6,-,N/A,,Clear,140,2013-02-18 05:55:00